Regional Weather Roundup
Issued by NWS Memphis, TN

Home | Current Version | Previous Version | Text Only | Print | Product List | Glossary On
Versions: 1 2 3 4 5 6 7 8 9 10 11 12 13 14 15 16 17 18 19 20 21 22 23 24 25 26 27 28 29 30 31 32 33 34 35 36 37 38 39 40 41 42 43 44 45 46 47 48 49 50
000
ASUS44 KMEG 292110
RWRMEG
MEMPHIS CWA HOURLY WEATHER ROUNDUP
NATIONAL WEATHER SERVICE MEMPHIS TN
400 PM CDT SAT AUG 29 2015

...WEST TENNESSEE...

CITY           SKY/WX    TMP DP  RH WIND       PRES   REMARKS
MEMPHIS INTL   FAIR      93  61  34 SW9       30.00F HX  93
NWS MEMPHIS      N/A     91 N/A N/A MISG        N/A
JACKSON        FAIR      90  64  42 W6        30.01F HX  91
LEXINGTON      SUNNY     90  63  40 VRB5      30.03F HX  90
DYERSBURG      FAIR     N/A N/A N/A MISG        N/A
UNION CITY     SUNNY     90  68  48 S5        30.00F HX  93
PARIS          SUNNY     90  61  37 VRB5      30.02F


...EASTERN ARKANSAS...

CITY           SKY/WX    TMP DP  RH WIND       PRES   REMARKS
JONESBORO      FAIR      82  68  62 SW3       30.01S
WEST MEMPHIS   FAIR      91  64  40 S5        29.98F HX  92
BATESVILLE     FAIR      77  70  78 CALM      30.01F
NEWPORT        CLOUDY    81  69  66 NW9       30.02S
WALNUT RIDGE   FAIR      82  63  51 S8        30.01F
BLYTHEVILLE    FAIR      87  66  49 SW7       30.00F
SEARCY         FAIR      84  68  58 CALM      30.01F
STUTTGART      FAIR      90  61  37 S8        30.00F
PINE BLUFF     FAIR      89  62  40 SW6       29.99F
MONTICELLO     PTSUNNY   92  62  36 VRB5      29.99F HX  92


...NORTH MISSISSIPPI...

CITY           SKY/WX    TMP DP  RH WIND       PRES   REMARKS
TUPELO         PTSUNNY   88  68  51 CALM      30.02F HX  91
OXFORD         FAIR      90  66  45 SE7       30.03F HX  92
OLIVE BRANCH   MOSUNNY   90  63  40 S8        30.00F HX  90
TUNICA         FAIR      90  63  40 SE7       30.00F HX  90
CLARKSDALE     FAIR      91  64  40 CALM      30.00F HX  93
CORINTH        FAIR      88  64  45 CALM      30.02F
GREENWOOD      FAIR      91  65  41 S3        29.99F HX  93
COLUMBUS       FAIR      89  69  51 E5        30.01F HX  93
STARKVILLE     FAIR      88  66  48 SE6       30.01F HX  90
GOLDEN TRIANGL PTSUNNY   90  66  45 SE6       30.01F HX  92


...SOUTHEAST MISSOURI...

CITY           SKY/WX    TMP DP  RH WIND       PRES   REMARKS
WEST PLAINS    FAIR      75  65  70 S8        30.04F
POPLAR BLUFF   FAIR      79  66  64 CALM      30.01F
CAPE GIRARDEAU FAIR      80  67  64 CALM      30.02F


...NORTHWEST ALABAMA...

CITY           SKY/WX    TMP DP  RH WIND       PRES   REMARKS
MUSCLE SHOALS  FAIR      77  72  84 SE7       30.08F


...MIDDLE TENNESSEE...

CITY           SKY/WX    TMP DP  RH WIND       PRES   REMARKS
NASHVILLE      PTSUNNY   81  69  67 SW5       30.07F
CLARKSVILLE    LGT RAIN  90  61  37 MISG      30.03F HX  90
COLUMBIA       SUNNY     77  73  88 SE5       30.07S


...WESTERN KENTUCKY...

CITY           SKY/WX    TMP DP  RH WIND       PRES   REMARKS
PADUCAH        FAIR      89  65  44 W7        30.01F HX  91
FORT CAMPBELL  FAIR      89  64  44 CALM      30.03F HX  90


...CENTRAL ARKANSAS...

CITY           SKY/WX    TMP DP  RH WIND       PRES   REMARKS
LITTLE ROCK    CLOUDY    88  59  37 S7        29.99F


SKY/WX REPORTED AS FAIR MEANS FEW OR NO CLOUDS BELOW
12 THOUSAND FEET.



USA.gov is the U.S. government's official web portal to all federal, state and local government web resources and services.